Chatawa, MS

3:44 PM CDT on September 29, 2016 (GMT -0500)
McComb-Pike County-Lewis

Weather History for KMCB - January, 2014

Change the Weather History Date:

Monday, January 20, 2014

  Actual Average Record
Temperature  
Mean Temperature 48 °F -  
Max Temperature 66 °F 56 °F 79 °F (1954)
Min Temperature 30 °F 35 °F 7 °F (1985)
Degree Days  
Heating Degree Days 17    
Moisture  
Dew Point 34 °F    
Average Humidity 64    
Maximum Humidity 89    
Minimum Humidity 26    
Precipitation  
Precipitation 0.00 in - - ()
Sea Level Pressure  
Sea Level Pressure 30.04 in    
Wind  
Wind Speed 2 mph (SW)    
Max Wind Speed 10 mph    
Max Gust Speed -    
Visibility 10 miles    
Events      
Averages and records for this station are not official NWS values.
T = Trace of Precipitation, MM = Missing Value Source: NWS Daily Summary

Daily Weather History Graph

Daily Weather History Graph

Search for Another Location

Airport or City:

Trip Planner

Search our weather history database for the weather conditions in past years. The results will help you decide how hot, cold, wet, or windy it might be!

Date:

Astronomy

Jan. 20, 2014 Rise Set
Actual Time 6:59 AM CST 5:26 PM CST
Civil Twilight 6:33 AM CST 5:52 PM CST
Nautical Twilight 6:04 AM CST 6:21 PM CST
Astronomical Twilight 5:35 AM CST 6:50 PM CST
Moon 9:40 PM CST (1/20) 9:18 AM CST (1/20)
Length of Visible Light 11h 18m
Length of Day
10h 26m
Waning Gibbous, 82% of the Moon is Illuminated
Jan 20
Waning Gibbous
Jan 23
Last Quarter
Jan 30
New
Feb 6
First Quarter
Feb 14
Full

Hourly Weather History & Observations

Time (CST) Temp. Windchill Dew Point Humidity Pressure Visibility Wind Dir Wind Speed Gust Speed Precip Events Conditions
12:53 AM 34.0 °F - 28.9 °F 82% 30.12 in 10.0 mi Calm Calm - N/A   Clear
1:53 AM 33.1 °F - 28.9 °F 85% 30.11 in 9.0 mi Calm Calm - N/A   Clear
2:53 AM 30.9 °F - 28.0 °F 89% 30.11 in 10.0 mi Calm Calm - N/A   Clear
3:53 AM 32.0 °F - 28.0 °F 85% 30.09 in 10.0 mi Calm Calm - N/A   Clear
4:53 AM 30.0 °F - 27.0 °F 88% 30.09 in 10.0 mi Calm Calm - N/A   Clear
5:53 AM 30.0 °F - 27.0 °F 88% 30.09 in 10.0 mi Calm Calm - N/A   Clear
6:53 AM 32.0 °F - 27.0 °F 82% 30.09 in 10.0 mi Calm Calm - N/A   Clear
7:53 AM 34.0 °F - 30.0 °F 85% 30.09 in 10.0 mi Calm Calm - N/A   Clear
8:53 AM 44.1 °F 42.5 °F 36.0 °F 73% 30.11 in 10.0 mi SW 3.5 mph - N/A   Clear
9:53 AM 51.1 °F - 34.0 °F 52% 30.13 in 10.0 mi West 8.1 mph - N/A   Clear
10:53 AM 60.1 °F - 33.1 °F 36% 30.11 in 10.0 mi WSW 8.1 mph - N/A   Clear
11:53 AM 62.1 °F - 28.9 °F 29% 30.06 in 10.0 mi West 9.2 mph - N/A   Clear
12:53 PM 66.0 °F - 30.0 °F 26% 30.02 in 10.0 mi WNW 4.6 mph - N/A   Clear
1:53 PM 66.9 °F - 33.1 °F 28% 30.00 in 10.0 mi SW 10.4 mph - N/A   Clear
2:53 PM 66.9 °F - 32.0 °F 27% 29.97 in 10.0 mi SSW 8.1 mph - N/A   Clear
3:53 PM 66.0 °F - 36.0 °F 33% 29.97 in 10.0 mi SW 3.5 mph - N/A   Clear
4:53 PM 62.1 °F - 39.0 °F 43% 29.97 in 10.0 mi Calm Calm - N/A   Clear
5:53 PM 55.0 °F - 39.9 °F 57% 29.97 in 10.0 mi Calm Calm - N/A   Clear
6:53 PM 50.0 °F - 39.0 °F 66% 29.98 in 10.0 mi Calm Calm - N/A   Clear
7:53 PM 46.0 °F 44.8 °F 37.9 °F 73% 29.98 in 10.0 mi South 3.5 mph - N/A   Partly Cloudy
8:53 PM 51.1 °F - 41.0 °F 68% 29.98 in 10.0 mi South 3.5 mph - N/A   Clear
9:53 PM 50.0 °F - 41.0 °F 71% 29.98 in 10.0 mi South 3.5 mph - N/A   Clear
10:53 PM 50.0 °F - 42.1 °F 74% 29.98 in 10.0 mi Calm Calm - N/A   Partly Cloudy
11:24 PM 50.0 °F - 43.0 °F 77% 29.98 in 10.0 mi South 3.5 mph - N/A   Mostly Cloudy
11:53 PM 50.0 °F - 44.1 °F 80% 29.97 in 10.0 mi SSW 3.5 mph - N/A   Mostly Cloudy